| time (UTC) | temp F | wind direction | speed knots | gust knots | rain 1hr in | rain 24hr in | rain mn in | humidity % | barometer mb |
| 20260507043055 | 47 | 10 | 0.0 | 0.0 | 0.00 | 0.08 | 0.07 | 72 | 1017.7 |
| 20260507041551 | 48 | 10 | 0.0 | 0.0 | 0.00 | 0.08 | 0.07 | 72 | 1017.7 |
| 20260507040048 | 48 | 10 | 0.0 | 0.0 | 0.00 | 0.08 | 0.07 | 70 | 1017.7 |
| 20260507034549 | 49 | 10 | 0.0 | 0.0 | 0.00 | 0.09 | 0.07 | 68 | 1017.8 |
| 20260507033047 | 50 | 10 | 0.0 | 0.0 | 0.00 | 0.09 | 0.07 | 66 | 1017.8 |
| 20260507031546 | 51 | 10 | 0.0 | 0.9 | 0.00 | 0.09 | 0.07 | 64 | 1017.7 |
| 20260507030046 | 51 | 10 | 0.0 | 0.0 | 0.00 | 0.09 | 0.07 | 63 | 1017.7 |
| 20260507024546 | 51 | 10 | 0.0 | 0.0 | 0.00 | 0.10 | 0.07 | 62 | 1017.7 |
| 20260507023044 | 52 | 10 | 0.0 | 0.0 | 0.00 | 0.10 | 0.07 | 62 | 1017.6 |
| 20260507021544 | 53 | 10 | 0.0 | 0.0 | 0.00 | 0.10 | 0.07 | 61 | 1017.4 |
| 20260507020057 | 53 | 10 | 0.0 | 0.0 | 0.00 | 0.10 | 0.07 | 60 | 1017.3 |
| 20260507014546 | 54 | 10 | 0.0 | 0.0 | 0.00 | 0.19 | 0.07 | 58 | 1016.9 |
| 20260507013042 | 55 | 15 | 0.0 | 0.0 | 0.00 | 0.19 | 0.07 | 54 | 1016.8 |
| 20260507011542 | 56 | 11 | 0.0 | 0.0 | 0.00 | 0.19 | 0.07 | 53 | 1016.5 |
| 20260507010056 | 57 | 36 | 0.0 | 0.9 | 0.00 | 0.19 | 0.07 | 52 | 1016.2 |
| 20260507004539 | 57 | 13 | 0.0 | 1.7 | 0.00 | 0.27 | 0.07 | 50 | 1016.1 |
| 20260507003039 | 58 | 17 | 0.0 | 5.2 | 0.00 | 0.27 | 0.07 | 47 | 1016.1 |
| 20260507001537 | 59 | 5 | 0.0 | 0.0 | 0.00 | 0.27 | 0.07 | 46 | 1016.1 |
| 20260507000037 | 59 | 355 | 0.0 | 0.9 | 0.00 | 0.27 | 0.07 | 45 | 1015.9 |
| 20260506234537 | 60 | 5 | 0.0 | 3.5 | 0.00 | 0.39 | 0.07 | 45 | 1015.8 |
| 20260506233035 | 60 | 355 | 0.0 | 5.2 | 0.00 | 0.39 | 0.07 | 44 | 1015.8 |
| 20260506231544 | 60 | 276 | 0.0 | 2.6 | 0.00 | 0.39 | 0.07 | 44 | 1015.8 |
| 20260506230045 | 60 | 25 | 0.0 | 4.3 | 0.00 | 0.39 | 0.07 | 45 | 1015.9 |
| 20260506224539 | 60 | 5 | 0.0 | 0.0 | 0.00 | 0.42 | 0.07 | 45 | 1016.0 |
| 20260506223035 | 60 | 5 | 0.0 | 3.5 | 0.00 | 0.42 | 0.07 | 45 | 1016.0 |
| 20260506221536 | 60 | 265 | 0.0 | 0.0 | 0.00 | 0.42 | 0.07 | 46 | 1016.0 |
| 20260506220038 | 60 | 40 | 0.0 | 3.5 | 0.00 | 0.42 | 0.07 | 45 | 1016.1 |
| 20260506214537 | 61 | 341 | 0.0 | 9.6 | 0.00 | 0.43 | 0.07 | 44 | 1016.2 |
| 20260506213033 | 62 | 227 | 0.0 | 4.3 | 0.00 | 0.43 | 0.07 | 44 | 1016.3 |
| 20260506211534 | 61 | 38 | 0.0 | 7.8 | 0.00 | 0.43 | 0.07 | 46 | 1016.2 |
| 20260506210031 | 61 | 248 | 0.0 | 7.8 | 0.00 | 0.43 | 0.07 | 45 | 1016.4 |
| 20260506204533 | 60 | 10 | 0.0 | 0.9 | 0.00 | 0.43 | 0.07 | 46 | 1016.4 |
| 20260506203024 | 60 | 11 | 0.0 | 3.5 | 0.00 | 0.43 | 0.07 | 45 | 1016.8 |
| 20260506201530 | 60 | 360 | 0.0 | 4.3 | 0.00 | 0.43 | 0.07 | 46 | 1017.0 |
| 20260506200021 | 60 | 281 | 0.0 | 11.3 | 0.00 | 0.43 | 0.07 | 44 | 1017.0 |
| 20260506194519 | 60 | 17 | 0.0 | 5.2 | 0.00 | 0.43 | 0.07 | 43 | 1017.1 |
| 20260506193023 | 60 | 18 | 1.7 | 9.6 | 0.00 | 0.43 | 0.07 | 43 | 1017.0 |
| 20260506191513 | 60 | 277 | 0.0 | 5.2 | 0.00 | 0.43 | 0.07 | 46 | 1017.1 |
| 20260506190015 | 59 | 355 | 0.9 | 8.7 | 0.00 | 0.43 | 0.07 | 47 | 1016.9 |
| 20260506184518 | 59 | 347 | 0.0 | 7.8 | 0.00 | 0.43 | 0.07 | 49 | 1016.8 |
| 20260506183006 | 59 | 360 | 0.0 | 11.3 | 0.00 | 0.43 | 0.07 | 48 | 1016.9 |
| 20260506181503 | 59 | 280 | 0.0 | 3.5 | 0.00 | 0.43 | 0.07 | 50 | 1017.1 |
| 20260506180001 | 59 | 17 | 0.9 | 7.0 | 0.00 | 0.43 | 0.07 | 51 | 1017.3 |
| 20260506174559 | 58 | 323 | 0.9 | 8.7 | 0.00 | 0.43 | 0.07 | 48 | 1017.3 |
| 20260506173053 | 57 | 247 | 0.0 | 7.8 | 0.00 | 0.43 | 0.07 | 64 | 1017.2 |
| 20260506171559 | 56 | 345 | 0.9 | 5.2 | 0.00 | 0.43 | 0.07 | 69 | 1017.3 |
| 20260506170050 | 54 | 28 | 0.0 | 6.1 | 0.00 | 0.43 | 0.07 | 76 | 1017.3 |
| 20260506164545 | 53 | 223 | 1.7 | 7.0 | 0.00 | 0.44 | 0.07 | 76 | 1017.3 |
| 20260506163040 | 52 | 275 | 1.7 | 7.0 | 0.00 | 0.44 | 0.07 | 80 | 1017.2 |
| 20260506161539 | 52 | 313 | 1.7 | 3.5 | 0.00 | 0.44 | 0.07 | 82 | 1017.1 |
| 20260506160035 | 51 | 298 | 2.6 | 6.1 | 0.00 | 0.44 | 0.07 | 86 | 1016.9 |
| 20260506154529 | 50 | 274 | 0.0 | 6.1 | 0.00 | 0.44 | 0.07 | 87 | 1016.6 |
| 20260506153026 | 50 | 261 | 0.0 | 1.7 | 0.00 | 0.44 | 0.07 | 91 | 1016.5 |
| 20260506151525 | 49 | 261 | 0.0 | 4.3 | 0.00 | 0.44 | 0.07 | 92 | 1016.4 |
| 20260506150022 | 49 | 296 | 0.9 | 6.1 | 0.00 | 0.44 | 0.07 | 93 | 1016.4 |
| 20260506144522 | 49 | 268 | 0.9 | 4.3 | 0.00 | 0.44 | 0.07 | 93 | 1016.3 |
| 20260506143020 | 48 | 355 | 0.0 | 6.1 | 0.00 | 0.44 | 0.07 | 94 | 1016.2 |
| 20260506141518 | 48 | 341 | 0.9 | 6.1 | 0.00 | 0.44 | 0.07 | 94 | 1016.2 |
| 20260506140019 | 47 | 317 | 0.9 | 5.2 | 0.00 | 0.44 | 0.07 | 94 | 1016.4 |
| 20260506134513 | 47 | 248 | 0.0 | 7.8 | 0.00 | 0.46 | 0.07 | 94 | 1016.3 |
| 20260506133015 | 47 | 261 | 0.9 | 7.8 | 0.00 | 0.46 | 0.07 | 94 | 1016.3 |
| 20260506131513 | 47 | 275 | 0.9 | 6.1 | 0.00 | 0.46 | 0.07 | 94 | 1016.2 |
| 20260506130008 | 46 | 263 | 0.0 | 3.5 | 0.00 | 0.46 | 0.07 | 94 | 1015.9 |
| 20260506124507 | 46 | 295 | 0.0 | 2.6 | 0.00 | 0.53 | 0.07 | 94 | 1015.6 |
| 20260506123006 | 46 | 257 | 0.0 | 0.9 | 0.00 | 0.53 | 0.07 | 94 | 1015.9 |
| 20260506121505 | 46 | 310 | 0.0 | 2.6 | 0.00 | 0.53 | 0.07 | 94 | 1015.6 |
| 20260506120003 | 46 | 267 | 0.0 | 6.1 | 0.00 | 0.63 | 0.07 | 94 | 1015.5 |
| 20260506114505 | 46 | 205 | 0.0 | 2.6 | 0.00 | 0.63 | 0.07 | 94 | 1015.5 |
| 20260506113100 | 46 | 360 | 0.0 | 2.6 | 0.00 | 0.63 | 0.07 | 94 | 1015.3 |
| 20260506111557 | 46 | 256 | 0.0 | 2.6 | 0.00 | 0.63 | 0.07 | 94 | 1014.9 |
| 20260506110054 | 45 | 272 | 0.0 | 0.0 | 0.00 | 0.63 | 0.07 | 94 | 1014.2 |
| 20260506104559 | 45 | 272 | 0.0 | 0.9 | 0.00 | 0.66 | 0.07 | 94 | 1014.0 |
| 20260506103054 | 45 | 272 | 0.0 | 0.9 | 0.00 | 0.66 | 0.07 | 94 | 1013.3 |
| 20260506101552 | 45 | 276 | 0.0 | 2.6 | 0.00 | 0.66 | 0.07 | 94 | 1013.7 |
| 20260506100105 | 45 | 275 | 0.0 | 4.3 | 0.00 | 0.66 | 0.07 | 94 | 1013.4 |
| 20260506094550 | 45 | 316 | 0.9 | 2.6 | 0.00 | 0.67 | 0.07 | 94 | 1013.5 |
| 20260506093049 | 45 | 313 | 0.0 | 1.7 | 0.00 | 0.67 | 0.07 | 94 | 1013.3 |
| 20260506091553 | 45 | 317 | 0.0 | 1.7 | 0.00 | 0.67 | 0.07 | 94 | 1013.4 |
| 20260506090047 | 45 | 257 | 1.7 | 6.1 | 0.00 | 0.67 | 0.07 | 94 | 1013.9 |
| 20260506084544 | 46 | 261 | 0.0 | 5.2 | 0.01 | 0.67 | 0.07 | 94 | 1013.5 |
| 20260506083044 | 46 | 290 | 0.0 | 3.5 | 0.01 | 0.67 | 0.07 | 94 | 1013.4 |
| 20260506081543 | 46 | 248 | 0.0 | 3.5 | 0.01 | 0.67 | 0.07 | 94 | 1013.5 |
| 20260506073038 | 46 | 340 | 0.0 | 1.7 | 0.02 | 0.66 | 0.06 | 94 | 1012.9 |
| 20260506071537 | 46 | 272 | 0.0 | 3.5 | 0.02 | 0.66 | 0.06 | 94 | 1013.2 |
| 20260506061531 | 46 | 355 | 0.0 | 0.0 | 0.03 | 0.64 | 0.04 | 93 | 1013.0 |
| 20260506044529 | 45 | 333 | 0.0 | 0.0 | 0.01 | 0.60 | 0.60 | 93 | 1012.5 |